SCP
1 1 1 1 1 0 0 0 0 0 0 0 0 0 0 0 1 1 1 1 1 1 1 0 0 0 0 0 0 0 0 1 1 1 1 1 1 0 0 0 0 0 0 0 1 1 1 2 2
1 1 1 1 1 0 0 0 0 0 0 0 0 1 1 0 1 1 1 1 1 1 1 1 0 0 0 0 0 0 1 1 1 1 1 1 1 0 0 1 1 0 0 0 1 1 1 1 2
1 1 1 1 0 0 0 1 1 1 0 0 1 1 1 1 1 1 1 1 1 1 1 1 1 1 0 0 0 1 1 1 1 1 1 1 1 1 1 1 1 1 1 0 1 1 1 1 1
1 1 1 0 0 0 0 1 1 1 0 0 1 1 1 1 1 1 1 1 1 1 1 1 1 1 1 1 1 1 0 0 0 1 1 1 1 1 1 1 1 1 1 1 1 1 1 1 1
1 0 0 0 0 0 0 1 1 1 0 1 1 1 1 1 1 1 1 1 1 1 1 1 1 1 1 1 1 1 0 0 0 1 1 1 1 1 1 1 1 1 1 1 1 1 1 1 1
1 0 0 0 0 0 0 0 1 0 0 1 1 1 1 1 1 1 1 1 1 1 1 1 1 1 1 1 1 1 1 1 0 0 1 1 1 1 1 1 1 1 1 1 1 1 1 1 1
1 0 0 0 0 0 0 0 0 1 1 1 1 1 1 1 1 1 1 1 1 1 1 1 0 1 1 1 1 2 1 1 0 0 0 1 1 1 1 1 1 1 1 1 1 1 1 1 1
0 0 0 0 0 1 0 0 0 1 1 1 1 1 1 1 1 1 1 1 1 1 1 1 0 0 1 1 1 1 1 1 0 0 0 0 0 1 1 1 1 1 1 1 1 1 1 0 0
0 0 0 0 0 0 0 0 0 1 1 1 1 1 1 1 1 1 0 0 0 0 0 0 0 0 0 0 0 1 1 0 0 0 0 0 0 1 1 1 1 1 1 1 1 1 1 0 0
0 0 0 0 0 0 1 1 0 1 1 1 1 1 1 1 1 1 0 0 0 0 0 0 0 0 0 0 0 0 0 0 0 0 0 0 0 1 1 2 2 2 1 1 1 1 1 0 0
0 0 0 0 0 1 1 1 1 1 1 1 1 2 1 1 1 1 0 0 0 0 0 0 0 0 0 0 0 0 0 0 0 0 0 0 1 2 2 2 2 2 1 1 0 0 0 0 0
0 0 0 0 0 0 1 1 1 1 1 1 1 2 2 1 1 1 1 0 0 0 0 0 0 0 0 0 0 0 0 0 0 0 0 0 1 2 3 3 2 1 1 0 0 0 0 0 0
0 0 0 0 0 0 0 0 1 1 1 1 2 2 2 1 1 1 1 0 0 0 0 0 0 0 0 0 0 0 0 0 0 0 0 0 1 2 2 2 1 0 0 0 0 0 0 0 0
0 0 0 0 0 0 0 0 1 1 1 2 2 2 2 1 1 1 1 1 1 1 0 0 0 0 0 0 0 0 0 0 0 1 1 1 1 1 1 1 0 0 0 0 0 0 0 0 0
0 0 0 0 0 0 0 0 0 1 1 2 2 2 2 1 1 1 1 1 1 1 1 0 0 0 0 1 1 1 1 1 1 1 1 1 1 1 1 1 1 0 0 0 0 1 1 1 0
0 0 0 0 0 0 0 0 1 1 1 1 2 2 2 1 1 1 1 1 1 1 1 1 1 1 1 1 1 1 1 1 1 0 0 1 1 1 1 1 1 1 1 1 1 1 1 1 1
0 0 0 0 0 0 0 0 1 1 1 1 1 1 2 1 1 1 1 1 1 1 1 1 1 1 1 2 2 1 1 1 1 0 0 0 1 1 1 1 1 1 1 1 1 1 1 1 1
0 0 0 0 0 0 0 0 1 1 1 1 1 1 1 1 1 1 1 1 1 1 1 1 1 1 1 1 1 1 1 1 0 0 0 0 0 1 1 1 1 1 1 1 1 1 1 1 1
0 0 0 0 0 0 0 0 0 0 0 1 1 1 1 2 1 1 1 1 1 1 1 1 1 1 1 1 1 1 0 0 0 0 0 0 0 0 0 1 1 1 1 1 1 1 1 1 1
0 0 0 0 0 0 0 0 0 0 0 0 1 1 1 1 1 1 1 1 1 1 1 1 1 1 1 1 1 1 0 0 0 0 0 0 0 0 0 0 1 1 1 1 1 1 1 1 1
0 0 0 0 0 0 0 0 0 0 0 0 1 1 1 1 1 1 1 1 1 1 1 1 1 1 1 1 1 1 1 0 0 0 0 0 0 0 0 0 0 0 1 1 1 1 1 1 1
0 0 0 0 0 0 0 0 0 0 1 1 1 1 2 2 2 2 1 1 1 1 1 1 1 1 1 1 1 1 1 1 0 0 0 0 0 0 0 0 0 0 0 0 0 0 1 1 1
0 0 0 0 0 0 0 0 0 1 1 1 1 1 2 2 2 2 1 1 1 1 1 1 1 1 1 2 2 1 1 1 1 1 0 0 0 0 0 0 0 0 0 0 0 0 0 0 0
0 0 0 0 0 0 0 0 1 1 1 1 1 1 1 2 2 2 2 2 2 2 2 1 1 1 2 2 2 2 2 1 1 1 0 0 0 0 0 0 0 0 0 0 0 0 0 0 0
0 0 0 0 0 0 0 0 1 1 1 1 1 1 1 1 1 2 2 2 2 2 2 2 2 2 2 2 3 2 2 2 1 1 1 0 0 0 0 0 0 0 0 0 0 0 0 0 0
0 0 0 0 0 0 0 0 1 1 0 0 1 1 1 1 1 2 2 2 2 2 3 2 2 2 3 3 3 3 2 2 2 1 1 1 1 1 1 1 0 0 0 0 0 0 0 0 0
0 0 0 0 0 0 0 0 0 0 0 0 1 1 1 1 1 2 2 2 2 3 3 3 3 3 3 3 3 3 2 2 2 2 1 1 1 1 1 1 1 1 0 0 0 0 0 0 0
0 0 0 0 0 0 0 0 0 0 0 0 0 1 1 1 1 2 3 3 3 3 3 3 3 3 3 3 3 3 3 3 2 2 1 1 1 1 1 1 1 1 1 1 1 0 0 0 0
0 0 0 0 0 0 0 0 0 0 0 1 1 1 1 1 1 2 3 3 3 3 3 2 3 3 3 3 3 3 3 3 3 2 1 1 1 1 1 1 1 1 1 1 1 1 1 1 0
0 0 0 0 0 0 0 0 0 0 1 1 1 1 1 1 1 2 3 3 3 3 3 2 2 3 2 2 2 3 3 3 3 2 1 1 1 1 1 1 1 1 1 2 1 1 1 1 1
Wind_Speed
8 8 5 2 2 0 3 5 7 6 6 8 9 10 11 12 9 8 2 5 9 8 8 9 9 9 9 10 10 10 10 10 10 10 10 10 10 10 10 10 10 11 11 11 10 11 11 11 10
8 5 3 2 1 1 3 6 8 8 7 5 7 10 11 11 10 7 3 5 7 8 8 8 9 9 9 9 9 10 10 10 10 10 10 10 10 10 10 10 10 11 11 10 10 10 10 10 10
10 5 3 1 2 3 5 7 7 7 6 5 6 9 8 7 7 5 4 6 7 8 9 8 9 9 9 9 9 9 9 10 10 10 10 10 10 10 10 10 11 11 11 10 10 10 10 10 10
5 2 2 0 4 5 6 6 5 6 5 5 6 8 8 7 5 5 5 7 8 9 9 8 9 9 9 8 8 8 9 10 10 10 10 10 10 10 10 11 11 11 11 11 10 10 10 10 10
2 2 1 1 3 4 5 5 5 6 5 6 8 9 8 7 8 7 6 7 8 8 8 7 9 9 9 9 8 9 9 9 10 10 10 10 10 10 10 10 11 11 11 11 11 10 10 9 9
2 2 1 1 3 4 5 5 4 7 7 6 8 9 7 6 6 5 6 6 7 8 8 8 9 9 9 9 9 10 10 10 10 9 9 9 9 9 10 10 10 10 11 11 10 10 9 9 8
1 1 0 1 3 4 4 4 4 5 6 4 4 7 7 7 5 5 6 6 6 7 7 6 6 7 8 9 9 10 10 9 9 8 8 8 8 8 9 9 9 9 10 10 9 9 9 8 7
2 1 0 1 3 3 4 4 4 5 5 4 4 6 7 7 5 5 5 5 6 6 6 5 5 5 5 6 8 8 8 8 7 6 6 6 6 7 8 8 8 8 8 8 7 7 7 7 6
2 0 1 2 3 3 4 4 5 5 6 6 7 9 10 10 7 6 5 4 5 5 5 5 4 4 5 5 6 5 6 5 4 4 4 4 2 3 4 7 7 7 6 5 5 4 4 4 3
1 1 2 2 3 3 3 3 3 4 6 7 9 12 12 9 7 6 5 5 4 4 4 4 4 4 4 4 4 2 3 2 1 2 2 2 2 3 5 6 6 5 4 3 3 2 2 1 1
2 2 2 2 3 3 2 2 3 4 4 6 9 11 9 8 6 6 5 5 4 4 3 3 4 4 4 3 2 1 2 1 1 2 2 1 2 3 3 2 2 2 2 1 2 1 0 1 2
2 2 1 2 2 2 2 2 3 4 4 7 9 10 9 7 6 5 5 5 4 4 4 4 3 4 4 3 2 2 2 2 2 2 3 2 2 2 2 2 1 1 1 1 1 0 1 2 2
2 2 2 2 2 2 2 3 3 4 5 8 10 9 7 7 6 5 5 5 5 5 4 3 3 4 3 3 2 3 2 2 3 2 3 4 3 2 2 2 2 2 1 1 2 2 3 3 3
2 2 2 2 2 3 3 2 3 4 5 7 8 7 8 7 6 6 5 5 5 5 5 3 3 3 4 3 3 3 3 3 3 3 3 3 3 3 2 2 2 2 2 2 2 3 3 3 3
4 4 4 4 4 4 3 3 4 6 6 7 7 6 6 6 6 6 6 5 5 5 5 4 3 4 4 4 3 3 3 3 3 3 4 4 4 3 3 2 2 2 2 3 3 4 3 3 3
6 5 4 5 5 5 4 3 5 7 7 6 7 7 6 6 6 5 5 5 4 5 6 4 4 4 4 4 3 2 3 3 3 3 3 4 5 5 4 3 2 3 3 3 3 3 3 3 3
6 5 5 5 6 5 5 4 5 8 8 7 6 7 7 7 6 6 6 5 4 5 6 5 4 3 4 4 3 3 3 3 3 2 2 3 4 5 4 3 3 3 3 3 3 3 2 2 2
4 4 4 4 5 5 6 5 6 7 8 7 7 7 7 8 7 7 7 6 5 4 6 6 4 4 4 3 3 3 3 3 3 3 3 3 3 4 4 3 4 4 3 3 3 3 3 2 1
5 5 5 2 2 4 5 5 7 7 7 7 6 7 7 8 9 8 7 7 6 5 5 6 5 4 3 2 2 2 2 2 2 2 2 3 3 3 3 3 3 3 3 3 3 2 3 2 1
7 6 5 3 3 4 5 5 6 7 7 5 6 6 7 7 9 8 7 7 6 5 5 5 5 5 4 3 2 2 2 2 2 1 2 2 3 3 2 2 2 2 2 3 3 2 2 2 2
7 6 6 5 3 6 6 5 6 7 6 6 5 4 6 8 9 9 8 7 6 5 5 4 5 5 5 4 2 2 2 1 1 1 1 1 2 2 2 2 2 2 2 1 2 2 2 1 2
6 4 6 7 6 5 7 5 6 7 8 7 6 5 5 6 7 8 7 7 7 6 5 5 5 5 5 5 3 3 2 2 2 2 1 1 1 2 2 2 2 2 1 1 1 2 1 1 1
6 5 7 8 8 8 9 6 4 6 7 7 7 6 6 6 7 7 7 7 7 7 5 4 4 4 4 4 4 3 2 2 1 2 2 1 1 1 2 1 1 2 1 1 1 2 2 1 0
6 8 9 9 7 8 9 7 3 4 6 7 7 7 7 7 6 6 6 5 5 5 5 4 4 3 3 3 4 3 3 2 3 2 2 1 1 1 1 1 2 1 1 1 1 1 1 1 1
6 6 4 4 6 6 5 4 2 3 3 5 6 5 6 7 6 6 6 5 5 5 4 4 4 3 3 2 3 3 3 2 3 3 2 2 1 1 0 1 1 1 1 1 1 1 1 1 1
6 6 4 4 4 3 3 2 4 5 5 5 5 5 5 6 6 6 7 6 5 5 4 3 3 3 3 2 2 2 3 2 1 2 2 2 1 1 1 1 1 1 1 1 1 1 1 1 2
7 7 8 8 9 7 2 4 5 5 6 5 4 5 5 5 6 7 7 6 6 5 4 4 4 3 2 1 1 2 2 2 2 2 1 1 1 1 1 1 1 1 1 1 1 1 1 2 1
8 7 5 5 5 5 4 2 3 6 6 5 5 5 5 5 5 7 6 6 6 5 4 4 4 3 2 2 2 2 2 2 2 1 1 1 1 2 1 1 1 1 1 2 1 1 1 1 1
7 7 6 5 5 4 4 1 2 5 5 4 4 4 4 5 5 6 5 5 5 5 5 4 3 2 2 1 2 2 2 2 2 2 1 1 1 1 1 1 1 1 1 1 2 2 2 2 2
6 7 6 4 5 5 4 1 4 5 5 4 4 3 4 4 5 5 5 5 5 5 5 4 3 3 2 1 2 2 2 2 2 1 1 1 1 1 0 0 1 1 1 1 1 1 2 1 1
Wind_Direction
274 251 239 249 252 178 60 65 64 55 61 55 55 61 63 50 52 88 118 81 90 94 97 87 83 77 69 67 67 64 61 61 60 62 66 67 69 70 70 70 68 69 68 67 65 64 64 63 62
277 275 263 245 266 79 75 75 72 66 68 69 67 70 70 65 66 90 86 76 92 96 90 85 85 79 73 69 68 66 63 63 63 62 64 68 71 71 70 71 70 70 69 69 68 68 66 65 63
266 269 278 278 37 52 75 79 80 76 73 70 73 60 56 63 71 83 95 98 90 88 87 87 85 80 75 71 70 69 67 65 64 65 65 67 70 72 71 69 70 69 68 67 67 68 66 65 65
256 259 250 53 58 50 72 86 99 97 81 67 81 75 69 57 76 96 103 97 92 91 92 90 87 82 77 74 74 77 81 76 73 71 71 71 71 75 76 73 69 67 65 65 66 67 66 66 66
240 251 198 110 85 75 71 69 92 96 88 71 79 91 83 74 88 103 98 93 95 95 97 97 94 86 82 78 73 79 87 87 83 80 79 77 74 75 78 77 74 69 67 66 66 66 64 65 65
250 244 194 130 112 87 71 66 79 91 90 88 97 103 94 104 98 101 101 97 98 98 100 103 102 96 90 81 78 85 89 89 86 84 84 83 79 76 78 79 77 73 71 69 68 66 65 65 64
269 303 142 119 101 90 84 64 61 82 86 73 82 99 114 115 109 111 107 103 100 100 102 107 114 106 100 90 84 87 88 88 89 91 91 90 89 85 86 82 82 79 76 74 72 69 66 66 66
285 288 63 66 89 86 87 83 71 69 74 71 74 102 124 132 134 124 112 107 101 101 102 104 112 115 112 102 94 93 93 93 97 103 108 107 102 99 99 95 90 87 84 81 79 74 69 66 67
267 341 57 51 78 94 101 97 89 84 93 77 74 96 121 133 135 124 111 101 90 91 98 103 107 112 110 111 107 107 107 107 118 122 127 131 132 125 112 99 101 93 91 89 86 83 77 73 72
137 79 75 57 77 99 100 110 123 110 103 96 93 99 121 132 135 133 131 123 115 108 102 106 105 98 97 98 113 123 109 123 139 129 150 177 135 106 101 118 114 110 103 100 100 103 102 104 107
119 112 90 69 69 74 91 102 109 124 109 116 122 125 133 138 138 136 136 126 124 115 101 95 99 105 101 99 104 92 98 110 68 54 56 102 102 101 105 126 122 127 130 126 116 119 191 122 84
126 98 95 87 84 83 89 87 82 90 108 123 128 132 140 148 144 142 134 130 125 109 102 99 101 104 103 99 92 78 66 60 47 33 30 68 90 90 86 82 80 88 78 53 86 313 43 63 73
148 133 113 114 118 110 106 97 94 99 112 123 131 136 146 150 144 139 144 140 128 119 106 92 87 85 84 81 84 83 66 54 52 27 28 53 70 82 79 79 67 53 41 41 24 36 45 43 49
139 151 158 158 158 153 149 148 145 137 142 136 135 146 151 143 148 147 145 135 131 126 120 109 101 96 98 90 84 79 76 64 48 26 23 48 59 71 71 67 57 52 42 24 36 42 45 45 47
194 195 200 189 186 173 170 186 172 159 160 157 151 158 148 145 152 149 141 134 131 127 125 124 107 86 86 80 75 77 73 69 54 31 15 34 42 53 59 57 43 36 45 38 34 36 39 42 43
216 218 216 195 189 186 221 214 169 163 174 168 165 163 155 153 157 144 134 131 135 131 126 119 110 97 87 83 77 77 78 73 62 42 20 28 35 40 48 44 36 32 42 44 45 42 33 32 33
228 231 225 193 192 199 213 210 181 173 182 178 177 169 164 158 157 145 141 142 132 129 130 129 125 113 97 91 87 72 73 70 61 49 28 26 34 41 48 39 36 35 42 39 37 41 39 33 29
245 244 234 208 188 209 220 209 189 188 192 188 182 176 170 167 161 154 148 141 137 139 132 134 124 119 109 98 86 75 68 68 65 54 34 33 33 39 42 39 34 37 44 39 36 34 29 32 16
279 280 276 244 191 225 232 209 192 184 194 194 186 180 172 168 156 154 152 150 150 148 144 138 136 128 118 106 102 99 92 82 72 63 52 48 52 47 49 42 37 41 41 32 32 39 20 13 14
267 270 262 240 230 250 239 227 199 191 194 192 188 179 169 165 155 155 158 159 158 151 149 145 142 134 125 118 117 120 110 102 101 71 41 45 55 48 52 57 56 57 51 28 29 41 22 356 4
261 265 278 274 249 251 252 238 209 189 185 186 188 176 165 169 167 163 163 161 155 154 154 146 142 137 132 131 125 118 101 98 99 113 71 44 58 53 44 47 56 56 61 44 33 30 39 7 346
271 267 269 273 265 253 244 245 207 189 180 182 181 175 170 172 163 160 163 162 158 157 155 155 146 146 143 137 140 143 148 158 158 147 137 112 91 78 54 39 48 50 48 42 25 35 30 54 357
274 290 275 265 265 265 256 254 205 179 179 181 182 179 171 164 158 158 160 163 162 156 156 157 148 139 136 144 150 152 153 146 135 122 112 115 100 94 89 90 66 51 40 37 24 24 11 37 46
268 266 260 254 257 255 245 241 219 186 189 179 176 174 166 159 154 150 144 139 136 133 137 138 131 130 136 153 149 154 151 144 126 115 124 121 90 58 51 65 72 64 35 28 26 17 7 357 2
247 262 260 232 224 237 229 222 147 115 126 144 155 157 154 148 147 145 139 134 129 120 125 134 137 137 132 139 138 141 137 143 137 140 139 138 132 101 46 57 66 66 47 35 37 9 354 348 356
245 246 262 277 277 276 239 180 121 116 100 101 124 136 145 145 146 148 141 138 138 131 127 120 125 127 133 149 160 146 131 126 128 137 139 148 148 135 115 78 59 47 47 27 39 18 352 2 6
252 244 260 272 283 282 218 147 143 132 127 124 128 134 144 146 149 146 138 142 142 139 137 132 122 115 124 132 125 119 127 124 119 116 112 128 122 108 93 84 82 70 62 51 46 41 8 11 20
254 272 271 265 279 280 271 199 164 153 146 147 144 140 140 143 143 141 142 147 146 143 142 134 129 135 139 142 130 97 80 77 85 102 104 101 106 104 91 75 60 57 49 45 47 42 26 17 9
231 249 258 262 263 276 285 33 81 135 134 136 130 128 139 144 143 143 143 144 143 142 143 138 137 136 120 104 97 97 94 77 59 52 53 65 78 107 135 166 118 90 68 44 42 22 25 15 10
251 252 257 263 276 286 288 84 62 86 94 96 107 108 124 135 132 129 135 142 141 142 143 141 140 135 128 109 105 106 97 100 97 76 48 44 33 39 86 62 73 62 50 43 38 6 6 6 360